Theta_e
362 364 360 351 351 350 349 347 342 335 334 341 347 356 357 359 362 366 364 357 355 351 347 345 343 343 342 343 344 343 343 344 347 347 349 351 351 347
359 362 362 359 358 355 353 352 352 348 341 344 346 357 361 360 362 364 363 353 353 350 346 343 343 343 342 342 343 343 343 344 344 344 344 344 344 344
365 361 364 366 360 356 354 353 351 351 346 349 351 357 365 365 363 365 366 366 359 349 347 345 344 341 340 340 341 342 342 344 345 343 341 341 341 341
362 364 362 359 364 368 359 361 357 360 352 353 356 353 362 370 367 368 365 363 361 354 348 348 347 340 335 335 335 333 332 339 340 338 338 338 339 340
363 362 363 362 363 360 361 356 354 353 357 352 349 352 354 356 359 367 367 369 361 353 350 344 342 340 336 336 333 329 329 329 331 330 331 332 335 337
364 368 365 362 362 362 360 362 361 360 360 353 351 349 350 357 355 353 354 360 357 357 354 347 347 341 338 336 333 331 328 323 323 323 323 324 326 329
361 364 363 359 350 352 356 360 363 355 350 348 346 346 345 347 350 349 349 351 355 355 354 359 359 358 349 338 340 331 328 324 320 320 320 320 320 323
357 359 360 354 351 343 341 342 350 358 354 350 348 348 358 355 353 351 349 347 345 356 357 356 366 359 370 356 336 329 327 324 322 321 320 319 319 320
360 360 357 355 351 355 343 338 339 336 339 356 354 354 359 359 363 356 360 358 352 354 364 353 366 363 358 349 330 326 324 323 323 322 320 319 318 317
359 360 360 359 359 356 359 357 355 353 353 351 354 358 360 359 356 355 357 358 359 358 370 350 365 361 356 353 329 326 324 322 322 320 318 316 314 312
361 365 363 361 338 330 354 351 351 350 341 335 337 332 331 329 334 348 348 348 346 348 359 358 358 348 348 346 341 325 322 320 319 319 317 314 310 309
359 360 335 346 324 324 346 350 347 349 349 349 351 346 339 347 330 347 350 346 345 342 354 352 346 348 339 337 341 335 331 317 315 315 314 311 308 321
351 357 351 323 320 318 322 349 344 344 342 348 348 348 348 351 349 351 353 348 343 341 347 350 345 343 342 335 337 338 336 327 329 322 309 308 307 312
345 347 340 321 318 316 322 321 317 322 345 346 346 344 344 346 347 348 346 344 345 343 344 344 342 342 343 341 336 341 339 338 336 333 328 314 308 309
345 335 320 314 313 319 318 317 315 343 345 343 343 340 338 342 344 346 347 345 342 342 344 344 341 342 340 339 339 340 340 339 337 335 329 322 318 317
331 334 330 321 316 329 327 330 342 343 343 342 339 339 340 340 338 340 340 340 341 343 345 340 338 338 336 337 338 336 336 333 340 335 331 328 325 323
332 337 331 329 332 334 335 335 335 339 339 340 339 339 338 337 337 340 340 340 340 340 341 345 345 342 339 334 333 334 331 331 334 330 328 325 326 326
329 336 333 333 332 332 333 335 337 330 340 339 337 336 334 334 333 336 337 337 336 338 338 341 337 333 334 340 334 338 336 333 332 330 328 324 322 324
327 338 335 331 332 332 331 332 334 331 331 329 330 328 328 329 328 330 331 332 331 333 336 336 335 331 326 325 338 314 326 335 333 326 326 322 322 324
334 331 330 329 327 327 326 329 332 331 330 329 329 327 326 327 327 327 328 329 328 329 330 333 332 332 327 324 327 327 306 318 326 324 324 316 310 311
330 330 330 327 325 325 327 327 329 328 324 323 322 320 318 319 322 321 323 310 313 324 323 325 329 322 333 329 325 326 317 308 311 317 315 311 309 309
327 328 330 328 328 326 325 326 325 318 318 317 319 319 318 318 319 318 319 316 316 316 316 318 323 327 328 323 323 324 322 313 309 308 308 310 311 306
327 328 328 328 328 326 325 324 321 318 318 319 319 318 318 316 318 318 316 316 315 314 314 314 315 317 318 324 322 323 322 314 310 308 308 307 308 308
Wind_Speed
9 8 8 8 6 7 6 6 8 10 9 8 4 6 8 9 8 11 11 8 10 12 10 9 7 9 8 8 7 8 8 8 5 2 0 8 9 25
8 8 8 8 7 7 6 7 7 9 11 10 9 9 8 8 11 11 13 13 15 13 8 7 7 7 6 7 7 7 7 5 2 2 5 7 18 18
11 11 11 10 9 9 7 7 8 8 11 11 10 11 11 12 10 11 12 12 11 7 6 6 6 4 5 6 7 6 5 3 3 2 9 15 16 15
14 12 12 10 10 10 8 9 9 9 10 13 11 12 12 10 10 11 11 12 11 12 6 7 3 1 4 5 4 4 3 2 5 6 9 12 12 9
12 14 13 11 10 9 6 9 9 9 6 10 11 11 11 11 12 10 9 11 12 8 5 7 5 3 2 3 2 3 3 3 6 7 9 11 10 7
13 13 13 12 12 10 9 9 9 8 10 9 11 12 12 11 11 10 9 6 8 12 9 6 7 8 7 3 2 3 4 3 4 7 9 9 9 9
14 11 13 14 8 9 8 10 10 10 10 10 11 12 12 9 11 12 12 12 9 9 9 4 4 6 7 8 6 8 5 3 6 9 10 11 9 8
12 13 14 12 12 15 13 12 10 10 12 11 12 13 13 13 12 12 12 12 13 9 5 8 5 8 4 4 8 10 8 7 8 8 9 9 8 8
15 13 13 12 11 13 12 11 12 13 15 12 15 15 13 13 11 13 12 11 12 11 8 10 4 5 4 6 7 9 8 8 9 9 10 9 9 8
16 17 16 15 15 12 11 11 10 11 12 9 10 11 12 11 10 10 12 13 11 10 7 8 5 5 3 1 3 5 7 7 9 9 10 10 9 8
16 14 13 13 4 8 9 9 9 10 6 8 8 10 13 13 11 9 11 10 10 8 8 3 4 1 3 3 4 5 6 6 7 8 9 11 10 11
14 15 3 7 10 9 11 8 7 7 5 7 10 9 10 10 13 11 8 8 6 5 2 2 1 2 3 2 3 6 7 7 8 9 10 11 14 9
5 4 3 6 4 6 8 7 4 5 5 7 6 6 6 6 6 6 6 5 3 5 1 1 3 2 3 4 5 7 8 8 8 9 9 11 14 10
6 4 3 10 11 10 8 3 2 4 8 5 6 6 5 5 5 5 5 4 3 6 3 3 3 4 2 2 3 7 8 8 9 9 9 10 7 5
4 5 7 7 9 9 14 10 8 8 7 7 4 5 5 5 7 5 5 3 4 3 3 1 4 2 3 3 1 4 5 7 7 7 9 10 10 9
4 5 5 2 3 3 5 5 4 4 4 3 2 4 5 4 4 5 4 4 3 1 4 1 1 2 2 3 4 2 2 3 5 8 6 9 10 10
3 4 5 5 4 5 4 4 5 6 4 2 3 2 3 3 3 3 3 3 3 3 3 4 2 4 3 3 3 5 4 5 4 3 4 5 7 8
5 4 3 5 6 7 5 5 4 4 1 2 3 3 4 3 4 3 3 4 5 3 4 3 4 3 2 5 8 6 5 7 6 5 7 5 5 4
6 7 7 4 2 3 4 3 2 3 1 3 3 2 3 5 2 4 6 5 4 4 5 4 4 3 3 3 2 4 4 5 5 7 7 4 3 2
4 0 0 2 2 2 2 0 2 3 3 2 2 3 4 4 4 5 5 4 5 5 7 3 4 4 5 6 5 2 4 3 3 5 6 3 3 5
4 5 3 2 1 1 1 2 2 1 0 1 1 2 2 4 2 4 4 2 3 5 6 6 5 4 4 4 3 3 1 3 2 2 2 3 2 1
5 5 6 3 4 4 4 3 4 3 3 4 2 2 2 3 3 4 3 5 5 6 6 7 6 5 1 2 7 7 2 2 5 9 11 5 3 3
5 5 4 7 4 4 4 4 4 4 3 2 2 2 2 3 3 3 4 4 5 6 6 8 7 7 8 3 3 6 4 2 1 1 1 5 2 3
Wind_Direction
259 246 256 270 265 262 270 271 283 293 298 312 294 299 278 307 348 314 310 303 302 275 267 284 290 289 291 304 339 348 348 333 320 316 175 196 202 173
243 246 251 262 256 250 263 266 265 279 290 298 306 311 304 307 298 313 299 289 259 238 256 289 291 287 306 333 0 5 357 356 3 268 239 175 151 159
247 252 247 252 261 259 245 241 257 266 277 287 305 306 325 290 303 301 297 303 291 183 237 297 287 310 336 1 9 9 7 26 42 173 141 139 147 167
243 245 248 251 240 240 261 273 282 304 292 291 301 299 301 309 294 294 289 305 302 299 200 236 249 241 14 26 10 36 12 67 106 139 146 142 154 154
251 243 243 248 253 265 263 265 275 282 271 270 294 290 300 298 290 278 290 302 278 296 217 168 159 145 68 39 4 68 56 91 151 158 160 151 156 171
252 250 245 240 256 257 250 258 269 279 285 278 283 288 286 293 288 271 263 263 285 303 301 79 166 178 183 158 187 95 87 115 165 165 149 146 149 153
249 247 235 244 242 265 279 278 286 271 282 285 282 280 280 279 294 302 298 284 302 293 310 299 250 245 171 195 166 132 118 130 139 142 149 152 152 147
246 247 250 233 220 222 223 230 266 279 280 283 286 287 288 281 278 288 303 303 301 295 310 293 334 281 277 262 99 131 143 151 143 149 151 148 152 150
257 260 256 253 236 256 221 210 227 229 235 265 277 278 289 288 294 286 277 282 284 299 322 290 278 263 249 124 150 151 154 163 151 161 158 156 158 158
250 257 253 258 266 262 261 268 273 273 268 262 267 269 284 304 294 292 291 283 274 281 295 272 296 256 206 189 156 153 155 179 163 167 162 158 158 159
249 248 249 254 182 131 231 246 260 275 272 202 241 266 262 252 256 291 273 275 277 292 314 268 253 117 253 230 150 152 164 169 162 165 167 158 153 147
245 245 124 282 138 169 229 226 251 269 295 322 304 281 261 275 232 236 267 272 299 309 11 310 120 181 221 200 201 181 184 169 170 164 165 166 169 190
359 310 134 96 146 203 271 249 266 332 281 283 298 298 321 314 359 346 320 266 243 239 346 304 207 188 235 175 194 197 198 160 181 177 171 186 200 240
250 194 144 179 219 231 223 206 226 242 257 286 291 290 309 330 324 330 327 308 258 271 311 263 266 223 256 195 201 193 203 174 203 186 188 176 221 230
256 338 84 181 227 241 243 227 213 218 244 252 282 300 310 305 313 313 323 265 256 238 244 271 298 304 273 284 163 205 183 203 202 208 187 180 203 209
209 225 225 265 344 84 185 201 231 264 270 286 287 283 299 324 318 333 333 332 295 273 187 189 280 303 283 246 252 231 207 222 211 220 209 202 200 210
262 230 202 173 184 192 202 185 200 209 221 233 252 263 296 318 323 333 331 315 295 295 292 138 84 323 270 269 264 242 215 231 261 180 208 217 215 219
227 207 176 176 189 203 193 180 187 187 176 270 270 304 314 314 330 316 320 320 320 323 312 353 359 338 313 230 239 264 226 236 222 202 202 233 245 203
245 198 184 176 167 198 174 164 153 138 121 274 299 283 301 314 269 311 324 314 309 315 315 338 326 344 323 299 304 245 283 309 213 214 209 218 235 350
261 331 284 174 184 202 141 133 172 179 204 265 260 307 315 322 320 327 313 323 324 336 314 331 310 1 334 326 323 10 40 291 301 263 235 110 65 18
210 189 200 161 146 275 125 213 288 165 72 270 239 298 312 291 327 307 321 266 289 300 315 330 23 160 322 301 265 270 99 23 355 305 121 132 154 192
202 222 189 223 196 194 183 188 192 184 188 206 210 248 271 282 314 298 310 316 326 330 328 323 323 294 139 287 310 321 311 62 61 59 53 57 177 211
254 279 244 177 214 205 204 200 213 218 205 220 214 236 290 305 290 301 308 325 320 325 337 321 314 309 311 252 276 304 302 295 229 241 72 1 93 67